Location: Asheville, NC
(35.6000°N, 82.5500°W)
Time: 07:15:00
(UTC-04:00)

Vanguard 2 Rocket - Pass Details

Date: 15 February 2018
Orbit: 554 x 3327 km, 32.9° (Epoch: 21 May)

Event Time Altitude Azimuth Distance (km) Brightness Sun altitude
Rises 07:09:48 0° 285° (WNW) 7,319 - -2.2°
Exits shadow 07:10:59 - 284° (WNW) 7,091 10.7 -2.0°
Reaches altitude 10° 07:15:20 10° 279° (W) 6,250 10.5 -1.1°
Maximum altitude 07:32:13 39° 220° (SW) 3,648 9.8 2.2°
Drops below altitude 10° 07:44:10 10° 157° (SSE) 4,451 11.1 4.5°
Sets 07:47:24 0° 149° (SSE) 5,100 11.6 5.1°
